| time (UTC) | temp F | wind direction | speed MPH | gust MPH | rain 1hr in | rain 24hr in | rain mn in | humidity % | barometer mb |
| 20260904000702 | 87 | 158 | 2.0 | 7.0 | 0.00 | 0.24 | 0.15 | 78 | 1014.8 |
| 20260904000140 | 88 | 141 | 3.0 | 7.0 | 0.00 | 0.24 | 0.15 | 78 | 1014.7 |
| 20260903235628 | 87 | 125 | 2.0 | 6.0 | 0.00 | 0.24 | 0.15 | 78 | 1014.8 |
| 20260903235145 | 87 | 149 | 2.0 | 7.0 | 0.00 | 0.24 | 0.15 | 78 | 1014.7 |
| 20260903234644 | 88 | 146 | 3.0 | 7.0 | 0.00 | 0.24 | 0.15 | 77 | 1014.7 |
| 20260903234201 | 88 | 130 | 4.0 | 7.0 | 0.00 | 0.24 | 0.15 | 77 | 1014.7 |
| 20260903233638 | 88 | 140 | 2.0 | 8.0 | 0.00 | 0.24 | 0.15 | 77 | 1014.7 |
| 20260903233135 | 88 | 130 | 4.0 | 9.0 | 0.00 | 0.24 | 0.15 | 77 | 1014.6 |
| 20260903232635 | 88 | 149 | 4.0 | 9.0 | 0.00 | 0.24 | 0.15 | 77 | 1014.6 |
| 20260903232229 | 88 | 121 | 2.0 | 7.0 | 0.00 | 0.24 | 0.15 | 77 | 1014.4 |
| 20260903231723 | 88 | 136 | 3.0 | 8.0 | 0.00 | 0.24 | 0.15 | 77 | 1014.3 |
| 20260903231158 | 88 | 144 | 5.0 | 9.0 | 0.00 | 0.24 | 0.15 | 77 | 1014.4 |
| 20260903230635 | 88 | 119 | 4.0 | 9.0 | 0.00 | 0.24 | 0.15 | 77 | 1014.5 |
| 20260903230131 | 88 | 137 | 3.0 | 6.0 | 0.00 | 0.24 | 0.15 | 77 | 1014.6 |
| 20260903225638 | 88 | 119 | 2.0 | 9.0 | 0.00 | 0.24 | 0.15 | 76 | 1014.7 |
| 20260903225216 | 88 | 129 | 2.0 | 9.0 | 0.00 | 0.24 | 0.15 | 77 | 1014.7 |
| 20260903224632 | 89 | 161 | 1.0 | 6.0 | 0.00 | 0.24 | 0.15 | 77 | 1014.8 |
| 20260903224130 | 89 | 144 | 2.0 | 6.0 | 0.00 | 0.24 | 0.15 | 76 | 1014.8 |
| 20260903223708 | 89 | 131 | 2.0 | 8.0 | 0.00 | 0.24 | 0.15 | 77 | 1014.7 |
| 20260903223206 | 88 | 135 | 3.0 | 8.0 | 0.00 | 0.24 | 0.15 | 77 | 1014.5 |
| 20260903222723 | 89 | 153 | 2.0 | 7.0 | 0.00 | 0.24 | 0.15 | 77 | 1014.5 |
| 20260903222641 | 89 | 153 | 2.0 | 7.0 | 0.00 | 0.24 | 0.15 | 77 | 1014.5 |
| 20260903222139 | 89 | 120 | 4.0 | 8.0 | 0.00 | 0.24 | 0.15 | 76 | 1014.4 |
| 20260903221637 | 89 | 163 | 2.0 | 8.0 | 0.00 | 0.24 | 0.15 | 77 | 1014.4 |
| 20260903221133 | 88 | 142 | 4.0 | 9.0 | 0.00 | 0.24 | 0.15 | 76 | 1014.2 |
| 20260903220629 | 88 | 141 | 3.0 | 10.0 | 0.00 | 0.24 | 0.15 | 75 | 1014.1 |
| 20260903220208 | 89 | 157 | 5.0 | 10.0 | 0.00 | 0.24 | 0.15 | 75 | 1014.0 |
| 20260903215656 | 89 | 119 | 4.0 | 9.0 | 0.00 | 0.24 | 0.15 | 75 | 1014.1 |
| 20260903215251 | 89 | 140 | 4.0 | 7.0 | 0.00 | 0.24 | 0.15 | 74 | 1014.1 |
| 20260903215148 | 89 | 140 | 4.0 | 7.0 | 0.00 | 0.24 | 0.15 | 74 | 1014.1 |
| 20260903214646 | 89 | 157 | 4.0 | 9.0 | 0.00 | 0.24 | 0.15 | 75 | 1014.0 |
| 20260903214143 | 89 | 96 | 4.0 | 9.0 | 0.00 | 0.24 | 0.15 | 75 | 1014.0 |
| 20260903213720 | 89 | 121 | 3.0 | 7.0 | 0.00 | 0.24 | 0.15 | 75 | 1013.9 |
| 20260903213137 | 89 | 133 | 3.0 | 11.0 | 0.00 | 0.24 | 0.15 | 73 | 1013.8 |
| 20260903212633 | 89 | 123 | 2.0 | 11.0 | 0.00 | 0.24 | 0.15 | 74 | 1013.7 |
| 20260903212151 | 89 | 189 | 4.0 | 10.0 | 0.00 | 0.24 | 0.15 | 74 | 1013.5 |
| 20260903211628 | 90 | 153 | 7.0 | 14.0 | 0.00 | 0.24 | 0.15 | 73 | 1013.6 |
| 20260903211146 | 90 | 140 | 7.0 | 14.0 | 0.00 | 0.24 | 0.15 | 70 | 1013.7 |
| 20260903210644 | 91 | 142 | 5.0 | 10.0 | 0.00 | 0.24 | 0.15 | 71 | 1013.9 |
| 20260903210143 | 90 | 117 | 3.0 | 9.0 | 0.00 | 0.24 | 0.15 | 73 | 1013.9 |
| 20260903205633 | 90 | 141 | 5.0 | 9.0 | 0.00 | 0.24 | 0.15 | 73 | 1014.1 |
| 20260903205128 | 90 | 136 | 4.0 | 9.0 | 0.00 | 0.24 | 0.15 | 72 | 1014.2 |
| 20260903204644 | 91 | 129 | 4.0 | 9.0 | 0.00 | 0.24 | 0.15 | 71 | 1014.2 |
| 20260903204139 | 91 | 119 | 6.0 | 10.0 | 0.00 | 0.24 | 0.15 | 72 | 1014.0 |
| 20260903203636 | 91 | 134 | 6.0 | 13.0 | 0.00 | 0.24 | 0.15 | 72 | 1013.7 |
| 20260903203134 | 91 | 119 | 6.0 | 13.0 | 0.00 | 0.24 | 0.15 | 71 | 1013.6 |
| 20260903202631 | 91 | 132 | 4.0 | 12.0 | 0.00 | 0.24 | 0.15 | 69 | 1013.6 |
| 20260903202129 | 91 | 126 | 7.0 | 12.0 | 0.00 | 0.24 | 0.15 | 66 | 1013.5 |
| 20260903201707 | 91 | 142 | 7.0 | 12.0 | 0.00 | 0.24 | 0.15 | 69 | 1013.4 |
| 20260903201204 | 91 | 164 | 6.0 | 11.0 | 0.00 | 0.24 | 0.15 | 69 | 1013.7 |
| 20260903200641 | 91 | 155 | 4.0 | 10.0 | 0.00 | 0.24 | 0.15 | 69 | 1013.8 |
| 20260903200200 | 91 | 117 | 6.0 | 12.0 | 0.00 | 0.24 | 0.15 | 70 | 1013.8 |
| 20260903195709 | 91 | 111 | 7.0 | 12.0 | 0.00 | 0.24 | 0.15 | 69 | 1013.8 |
| 20260903195143 | 91 | 247 | 5.0 | 11.0 | 0.00 | 0.24 | 0.15 | 70 | 1013.8 |
| 20260903194659 | 91 | 140 | 4.0 | 12.0 | 0.00 | 0.24 | 0.15 | 71 | 1013.7 |
| 20260903194135 | 91 | 59 | 5.0 | 11.0 | 0.00 | 0.24 | 0.15 | 72 | 1013.8 |
| 20260903193651 | 91 | 67 | 4.0 | 12.0 | 0.00 | 0.24 | 0.15 | 72 | 1014.1 |
| 20260903193227 | 91 | 120 | 7.0 | 12.0 | 0.00 | 0.24 | 0.15 | 70 | 1014.0 |
| 20260903192738 | 91 | 71 | 5.0 | 11.0 | 0.00 | 0.24 | 0.15 | 71 | 1014.0 |
| 20260903192656 | 91 | 71 | 5.0 | 11.0 | 0.00 | 0.24 | 0.15 | 71 | 1014.0 |
| 20260903192153 | 91 | 152 | 5.0 | 12.0 | 0.00 | 0.24 | 0.15 | 71 | 1013.9 |
| 20260903191730 | 91 | 200 | 7.0 | 13.0 | 0.00 | 0.24 | 0.15 | 71 | 1013.9 |
| 20260903191207 | 91 | 105 | 6.0 | 13.0 | 0.00 | 0.24 | 0.15 | 72 | 1013.9 |
| 20260903190703 | 91 | 167 | 7.0 | 12.0 | 0.00 | 0.24 | 0.15 | 71 | 1014.1 |
| 20260903190138 | 91 | 197 | 6.0 | 12.0 | 0.00 | 0.24 | 0.15 | 72 | 1014.2 |
| 20260903185705 | 91 | 133 | 7.0 | 12.0 | 0.00 | 0.24 | 0.15 | 72 | 1014.1 |
| 20260903185201 | 91 | 167 | 8.0 | 12.0 | 0.00 | 0.24 | 0.15 | 75 | 1014.1 |
| 20260903184658 | 90 | 88 | 6.0 | 12.0 | 0.00 | 0.24 | 0.15 | 76 | 1014.1 |
| 20260903184214 | 91 | 173 | 7.0 | 14.0 | 0.00 | 0.24 | 0.15 | 75 | 1014.1 |
| 20260903184131 | 91 | 173 | 7.0 | 14.0 | 0.00 | 0.24 | 0.15 | 75 | 1014.1 |
| 20260903183649 | 91 | 99 | 7.0 | 11.0 | 0.00 | 0.24 | 0.15 | 75 | 1014.1 |
| 20260903183147 | 91 | 111 | 8.0 | 12.0 | 0.00 | 0.24 | 0.15 | 75 | 1014.0 |
| 20260903182645 | 91 | 102 | 5.0 | 13.0 | 0.00 | 0.24 | 0.15 | 77 | 1014.0 |
| 20260903182142 | 90 | 138 | 7.0 | 13.0 | 0.00 | 0.24 | 0.15 | 74 | 1014.2 |
| 20260903181659 | 91 | 84 | 6.0 | 10.0 | 0.00 | 0.24 | 0.15 | 74 | 1014.3 |
| 20260903181134 | 91 | 127 | 5.0 | 12.0 | 0.00 | 0.24 | 0.15 | 74 | 1014.4 |
| 20260903180631 | 91 | 147 | 7.0 | 12.0 | 0.00 | 0.24 | 0.15 | 74 | 1014.4 |
| 20260903180209 | 90 | 141 | 6.0 | 11.0 | 0.00 | 0.24 | 0.15 | 74 | 1014.2 |
| 20260903175655 | 90 | 110 | 6.0 | 12.0 | 0.00 | 0.24 | 0.15 | 75 | 1014.3 |
| 20260903175210 | 90 | 134 | 8.0 | 12.0 | 0.00 | 0.24 | 0.15 | 74 | 1014.4 |
| 20260903174726 | 90 | 89 | 6.0 | 11.0 | 0.00 | 0.24 | 0.15 | 75 | 1014.5 |
| 20260903174139 | 90 | 111 | 4.0 | 11.0 | 0.00 | 0.24 | 0.15 | 75 | 1014.5 |
| 20260903173656 | 90 | 114 | 7.0 | 13.0 | 0.00 | 0.24 | 0.15 | 74 | 1014.6 |
| 20260903173153 | 90 | 86 | 8.0 | 13.0 | 0.00 | 0.24 | 0.15 | 75 | 1014.7 |
| 20260903172629 | 90 | 128 | 7.0 | 11.0 | 0.00 | 0.24 | 0.15 | 75 | 1014.7 |
| 20260903172147 | 91 | 139 | 5.0 | 11.0 | 0.00 | 0.24 | 0.15 | 75 | 1014.8 |
| 20260903171644 | 91 | 139 | 7.0 | 11.0 | 0.00 | 0.24 | 0.15 | 74 | 1014.9 |
| 20260903171242 | 91 | 138 | 5.0 | 9.0 | 0.00 | 0.24 | 0.15 | 75 | 1015.1 |
| 20260903171200 | 91 | 138 | 5.0 | 9.0 | 0.00 | 0.24 | 0.15 | 75 | 1015.1 |
| 20260903170716 | 90 | 119 | 3.0 | 8.0 | 0.00 | 0.24 | 0.15 | 77 | 1015.1 |
| 20260903170634 | 90 | 119 | 3.0 | 8.0 | 0.00 | 0.24 | 0.15 | 77 | 1015.1 |
| 20260903170153 | 90 | 118 | 5.0 | 8.0 | 0.00 | 0.24 | 0.15 | 75 | 1015.1 |
| 20260903165737 | 90 | 176 | 3.0 | 6.0 | 0.00 | 0.24 | 0.15 | 74 | 1015.3 |
| 20260903165153 | 89 | 125 | 3.0 | 7.0 | 0.01 | 0.24 | 0.15 | 74 | 1015.2 |
| 20260903164728 | 89 | 125 | 2.0 | 7.0 | 0.05 | 0.24 | 0.15 | 78 | 1015.3 |
| 20260903164143 | 88 | 154 | 3.0 | 8.0 | 0.15 | 0.24 | 0.15 | 78 | 1015.3 |
| 20260903163700 | 87 | 116 | 4.0 | 8.0 | 0.15 | 0.24 | 0.15 | 81 | 1015.3 |
| 20260903163156 | 87 | 155 | 3.0 | 6.0 | 0.15 | 0.24 | 0.15 | 84 | 1015.7 |
| 20260903162653 | 86 | 175 | 2.0 | 7.0 | 0.15 | 0.24 | 0.15 | 87 | 1015.6 |
| 20260903162230 | 86 | 233 | 2.0 | 6.0 | 0.15 | 0.24 | 0.15 | 89 | 1015.8 |
| 20260903161705 | 86 | 159 | 2.0 | 6.0 | 0.15 | 0.24 | 0.15 | 93 | 1015.8 |
| 20260903161203 | 84 | 105 | 1.0 | 3.0 | 0.15 | 0.24 | 0.15 | 93 | 1015.9 |
| 20260903160700 | 83 | 105 | 1.0 | 7.0 | 0.15 | 0.24 | 0.15 | 91 | 1015.9 |
| 20260903160157 | 83 | 105 | 3.0 | 8.0 | 0.15 | 0.24 | 0.15 | 90 | 1015.9 |
| 20260903155646 | 83 | 105 | 4.0 | 10.0 | 0.15 | 0.24 | 0.15 | 89 | 1015.9 |
| 20260903155145 | 84 | 139 | 4.0 | 12.0 | 0.14 | 0.23 | 0.14 | 87 | 1016.0 |
| 20260903154720 | 86 | 100 | 6.0 | 12.0 | 0.09 | 0.18 | 0.09 | 84 | 1016.1 |
| 20260903154638 | 86 | 100 | 6.0 | 12.0 | 0.09 | 0.18 | 0.09 | 84 | 1016.1 |
| 20260903154153 | 88 | 132 | 6.0 | 10.0 | 0.00 | 0.09 | 0.00 | 81 | 1015.9 |
| 20260903153629 | 89 | 115 | 3.0 | 7.0 | 0.00 | 0.09 | 0.00 | 79 | 1015.9 |
| 20260903153147 | 89 | 199 | 2.0 | 6.0 | 0.00 | 0.09 | 0.00 | 79 | 1015.9 |
| 20260903152723 | 89 | 178 | 2.0 | 8.0 | 0.00 | 0.09 | 0.00 | 80 | 1015.8 |
| 20260903152139 | 89 | 222 | 3.0 | 8.0 | 0.00 | 0.09 | 0.00 | 80 | 1016.0 |
| 20260903151637 | 89 | 167 | 3.0 | 7.0 | 0.00 | 0.09 | 0.00 | 79 | 1015.9 |
| 20260903151135 | 89 | 131 | 3.0 | 7.0 | 0.00 | 0.09 | 0.00 | 79 | 1015.8 |
| 20260903150653 | 89 | 175 | 1.0 | 7.0 | 0.00 | 0.09 | 0.00 | 79 | 1015.6 |
| 20260903150152 | 89 | 227 | 2.0 | 7.0 | 0.00 | 0.09 | 0.00 | 77 | 1015.6 |
| 20260903145700 | 89 | 213 | 2.0 | 6.0 | 0.00 | 0.09 | 0.00 | 77 | 1015.7 |
| 20260903145158 | 89 | 244 | 3.0 | 7.0 | 0.00 | 0.09 | 0.00 | 75 | 1015.6 |
| 20260903144634 | 90 | 243 | 3.0 | 8.0 | 0.00 | 0.09 | 0.00 | 77 | 1015.6 |
| 20260903144151 | 90 | 242 | 4.0 | 9.0 | 0.00 | 0.09 | 0.00 | 78 | 1015.5 |
| 20260903143726 | 90 | 122 | 4.0 | 9.0 | 0.00 | 0.09 | 0.00 | 77 | 1015.4 |
| 20260903143223 | 90 | 157 | 4.0 | 7.0 | 0.00 | 0.09 | 0.00 | 77 | 1015.5 |
| 20260903142658 | 89 | 153 | 4.0 | 7.0 | 0.00 | 0.09 | 0.00 | 79 | 1015.4 |
| 20260903142135 | 89 | 153 | 4.0 | 7.0 | 0.00 | 0.09 | 0.00 | 79 | 1015.5 |
| 20260903141653 | 89 | 244 | 3.0 | 9.0 | 0.00 | 0.09 | 0.00 | 80 | 1015.5 |
| 20260903141130 | 89 | 182 | 1.0 | 4.0 | 0.00 | 0.09 | 0.00 | 82 | 1015.5 |
| 20260903140708 | 88 | 173 | 1.0 | 4.0 | 0.00 | 0.09 | 0.00 | 84 | 1015.4 |
| 20260903140246 | 87 | 228 | 0.0 | 4.0 | 0.00 | 0.09 | 0.00 | 86 | 1015.4 |
| 20260903135632 | 87 | 165 | 2.0 | 6.0 | 0.00 | 0.09 | 0.00 | 87 | 1015.4 |
| 20260903135129 | 86 | 159 | 1.0 | 6.0 | 0.00 | 0.09 | 0.00 | 88 | 1015.3 |
| 20260903134707 | 86 | 232 | 1.0 | 5.0 | 0.00 | 0.09 | 0.00 | 89 | 1015.2 |
| 20260903134243 | 85 | 140 | 1.0 | 4.0 | 0.00 | 0.09 | 0.00 | 91 | 1015.2 |
| 20260903133636 | 84 | 174 | 0.0 | 0.0 | 0.00 | 0.09 | 0.00 | 93 | 1015.2 |
| 20260903133155 | 84 | 265 | 0.0 | 0.0 | 0.00 | 0.09 | 0.00 | 95 | 1015.0 |
| 20260903132631 | 83 | 265 | 0.0 | 0.0 | 0.00 | 0.09 | 0.00 | 96 | 1014.9 |
| 20260903132209 | 83 | 265 | 0.0 | 0.0 | 0.00 | 0.09 | 0.00 | 97 | 1015.0 |
| 20260903131645 | 82 | 265 | 0.0 | 0.0 | 0.00 | 0.09 | 0.00 | 97 | 1015.0 |
| 20260903131143 | 82 | 265 | 0.0 | 0.0 | 0.00 | 0.09 | 0.00 | 97 | 1015.0 |
| 20260903130641 | 82 | 265 | 0.0 | 0.0 | 0.00 | 0.09 | 0.00 | 97 | 1015.1 |
| 20260903130139 | 82 | 265 | 0.0 | 0.0 | 0.00 | 0.09 | 0.00 | 97 | 1015.2 |
| 20260903125749 | 82 | 265 | 0.0 | 0.0 | 0.00 | 0.09 | 0.00 | 97 | 1015.2 |
| 20260903125707 | 82 | 265 | 0.0 | 0.0 | 0.00 | 0.09 | 0.00 | 97 | 1015.2 |
| 20260903125223 | 82 | 265 | 0.0 | 0.0 | 0.00 | 0.09 | 0.00 | 98 | 1015.2 |
| 20260903124659 | 81 | 265 | 0.0 | 0.0 | 0.00 | 0.09 | 0.00 | 98 | 1015.3 |
| 20260903124217 | 81 | 265 | 0.0 | 0.0 | 0.00 | 0.09 | 0.00 | 98 | 1015.4 |
| 20260903123712 | 81 | 265 | 0.0 | 0.0 | 0.00 | 0.09 | 0.00 | 98 | 1015.3 |
| 20260903123223 | 81 | 265 | 0.0 | 0.0 | 0.00 | 0.09 | 0.00 | 98 | 1015.2 |
| 20260903122638 | 80 | 265 | 0.0 | 0.0 | 0.00 | 0.09 | 0.00 | 98 | 1015.2 |
| 20260903122134 | 80 | 265 | 0.0 | 0.0 | 0.00 | 0.09 | 0.00 | 98 | 1015.2 |
| 20260903121634 | 80 | 265 | 0.0 | 0.0 | 0.00 | 0.09 | 0.00 | 98 | 1015.2 |
| 20260903121131 | 79 | 265 | 0.0 | 0.0 | 0.00 | 0.09 | 0.00 | 98 | 1015.2 |
| 20260903120649 | 79 | 265 | 0.0 | 0.0 | 0.00 | 0.09 | 0.00 | 98 | 1015.1 |
| 20260903120207 | 79 | 265 | 0.0 | 0.0 | 0.00 | 0.09 | 0.00 | 98 | 1015.0 |
| 20260903115635 | 79 | 265 | 0.0 | 0.0 | 0.00 | 0.09 | 0.00 | 98 | 1014.9 |
| 20260903115153 | 79 | 265 | 0.0 | 0.0 | 0.00 | 0.09 | 0.00 | 98 | 1015.0 |
| 20260903114630 | 78 | 265 | 0.0 | 0.0 | 0.00 | 0.09 | 0.00 | 98 | 1015.0 |
| 20260903114244 | 78 | 265 | 0.0 | 0.0 | 0.00 | 0.09 | 0.00 | 98 | 1015.0 |
| 20260903113638 | 78 | 265 | 0.0 | 0.0 | 0.00 | 0.09 | 0.00 | 98 | 1014.9 |
| 20260903113141 | 78 | 265 | 0.0 | 0.0 | 0.00 | 0.09 | 0.00 | 98 | 1014.8 |
| 20260903112641 | 78 | 265 | 0.0 | 0.0 | 0.00 | 0.09 | 0.00 | 98 | 1014.7 |
| 20260903112138 | 78 | 265 | 0.0 | 0.0 | 0.00 | 0.09 | 0.00 | 98 | 1014.6 |
| 20260903111654 | 78 | 265 | 0.0 | 0.0 | 0.00 | 0.09 | 0.00 | 98 | 1014.6 |
| 20260903111130 | 78 | 265 | 0.0 | 0.0 | 0.00 | 0.09 | 0.00 | 98 | 1014.6 |
| 20260903110706 | 78 | 265 | 0.0 | 0.0 | 0.00 | 0.09 | 0.00 | 97 | 1014.5 |
| 20260903110142 | 78 | 265 | 0.0 | 0.0 | 0.00 | 0.09 | 0.00 | 97 | 1014.4 |
| 20260903105649 | 78 | 265 | 0.0 | 0.0 | 0.00 | 0.09 | 0.00 | 97 | 1014.2 |
| 20260903105206 | 78 | 265 | 0.0 | 0.0 | 0.00 | 0.09 | 0.00 | 97 | 1014.0 |
| 20260903104642 | 78 | 265 | 0.0 | 0.0 | 0.00 | 0.09 | 0.00 | 97 | 1013.8 |
| 20260903104139 | 78 | 265 | 0.0 | 0.0 | 0.00 | 0.09 | 0.00 | 97 | 1013.8 |
| 20260903103638 | 78 | 265 | 0.0 | 0.0 | 0.00 | 0.09 | 0.00 | 97 | 1013.7 |
| 20260903103137 | 78 | 265 | 0.0 | 0.0 | 0.00 | 0.09 | 0.00 | 97 | 1013.7 |
| 20260903102655 | 78 | 265 | 0.0 | 0.0 | 0.00 | 0.09 | 0.00 | 97 | 1013.6 |
| 20260903102153 | 78 | 265 | 0.0 | 0.0 | 0.00 | 0.09 | 0.00 | 97 | 1013.6 |
| 20260903101708 | 78 | 265 | 0.0 | 0.0 | 0.00 | 0.09 | 0.00 | 97 | 1013.7 |
| 20260903101144 | 78 | 265 | 0.0 | 0.0 | 0.00 | 0.09 | 0.00 | 97 | 1013.7 |
| 20260903100700 | 78 | 265 | 0.0 | 0.0 | 0.00 | 0.09 | 0.00 | 97 | 1013.7 |
| 20260903100157 | 78 | 265 | 0.0 | 0.0 | 0.00 | 0.09 | 0.00 | 97 | 1013.5 |
| 20260903095723 | 78 | 265 | 0.0 | 0.0 | 0.00 | 0.09 | 0.00 | 97 | 1013.5 |
| 20260903095158 | 78 | 265 | 0.0 | 0.0 | 0.00 | 0.09 | 0.00 | 97 | 1013.4 |
| 20260903094634 | 78 | 265 | 0.0 | 0.0 | 0.00 | 0.09 | 0.00 | 97 | 1013.5 |
| 20260903094152 | 78 | 265 | 0.0 | 0.0 | 0.00 | 0.09 | 0.00 | 97 | 1013.5 |
| 20260903093725 | 78 | 265 | 0.0 | 0.0 | 0.00 | 0.09 | 0.00 | 97 | 1013.6 |
| 20260903093145 | 78 | 265 | 0.0 | 0.0 | 0.00 | 0.09 | 0.00 | 97 | 1013.6 |
| 20260903092703 | 78 | 265 | 0.0 | 0.0 | 0.00 | 0.09 | 0.00 | 97 | 1013.5 |
| 20260903092140 | 78 | 265 | 0.0 | 0.0 | 0.00 | 0.09 | 0.00 | 97 | 1013.3 |
| 20260903091638 | 78 | 265 | 0.0 | 0.0 | 0.00 | 0.09 | 0.00 | 97 | 1013.5 |
| 20260903091214 | 78 | 265 | 0.0 | 0.0 | 0.00 | 0.09 | 0.00 | 97 | 1013.5 |
| 20260903090725 | 78 | 265 | 0.0 | 0.0 | 0.00 | 0.09 | 0.00 | 97 | 1013.5 |
| 20260903090221 | 78 | 265 | 0.0 | 0.0 | 0.00 | 0.09 | 0.00 | 97 | 1013.5 |
| 20260903085727 | 78 | 265 | 0.0 | 0.0 | 0.00 | 0.09 | 0.00 | 97 | 1013.5 |
| 20260903085143 | 78 | 265 | 0.0 | 0.0 | 0.00 | 0.09 | 0.00 | 97 | 1013.5 |
| 20260903084641 | 78 | 265 | 0.0 | 0.0 | 0.00 | 0.09 | 0.00 | 97 | 1013.4 |
| 20260903084140 | 78 | 265 | 0.0 | 0.0 | 0.00 | 0.09 | 0.00 | 97 | 1013.5 |
| 20260903083716 | 78 | 265 | 0.0 | 0.0 | 0.00 | 0.09 | 0.00 | 97 | 1013.4 |
| 20260903083132 | 78 | 265 | 0.0 | 0.0 | 0.00 | 0.09 | 0.00 | 97 | 1013.4 |
| 20260903082630 | 78 | 265 | 0.0 | 0.0 | 0.00 | 0.09 | 0.00 | 97 | 1013.5 |
| 20260903082207 | 78 | 265 | 0.0 | 0.0 | 0.00 | 0.09 | 0.00 | 97 | 1013.5 |
| 20260903081644 | 77 | 265 | 0.0 | 0.0 | 0.00 | 0.09 | 0.00 | 97 | 1013.4 |
| 20260903081142 | 77 | 265 | 0.0 | 0.0 | 0.00 | 0.09 | 0.00 | 97 | 1013.4 |
| 20260903080700 | 77 | 265 | 0.0 | 0.0 | 0.00 | 0.09 | 0.00 | 97 | 1013.4 |
| 20260903080141 | 77 | 265 | 0.0 | 0.0 | 0.00 | 0.09 | 0.00 | 97 | 1013.4 |
| 20260903075630 | 77 | 265 | 0.0 | 0.0 | 0.00 | 0.09 | 0.00 | 97 | 1013.4 |
| 20260903075148 | 77 | 265 | 0.0 | 0.0 | 0.00 | 0.09 | 0.00 | 97 | 1013.2 |
| 20260903074642 | 77 | 265 | 0.0 | 0.0 | 0.00 | 0.09 | 0.00 | 96 | 1013.4 |
| 20260903074136 | 77 | 265 | 0.0 | 0.0 | 0.00 | 0.09 | 0.00 | 96 | 1013.4 |
| 20260903073748 | 77 | 265 | 0.0 | 0.0 | 0.00 | 0.09 | 0.00 | 97 | 1013.5 |
| 20260903073241 | 77 | 265 | 0.0 | 0.0 | 0.00 | 0.09 | 0.00 | 96 | 1013.6 |
| 20260903072655 | 77 | 265 | 0.0 | 0.0 | 0.00 | 0.09 | 0.00 | 96 | 1013.5 |
| 20260903072132 | 77 | 265 | 0.0 | 0.0 | 0.00 | 0.09 | 0.00 | 96 | 1013.5 |
| 20260903071709 | 77 | 265 | 0.0 | 0.0 | 0.00 | 0.09 | 0.00 | 96 | 1013.7 |
| 20260903071146 | 77 | 265 | 0.0 | 0.0 | 0.00 | 0.09 | 0.00 | 96 | 1013.8 |
| 20260903070643 | 77 | 265 | 0.0 | 0.0 | 0.00 | 0.09 | 0.00 | 96 | 1013.8 |
| 20260903070141 | 77 | 265 | 0.0 | 0.0 | 0.00 | 0.15 | 0.00 | 96 | 1013.8 |
| 20260903065634 | 77 | 265 | 0.0 | 0.0 | 0.00 | 0.15 | 0.00 | 96 | 1014.0 |
| 20260903065228 | 77 | 265 | 0.0 | 0.0 | 0.00 | 0.15 | 0.00 | 96 | 1014.0 |
| 20260903064743 | 77 | 265 | 0.0 | 0.0 | 0.00 | 0.15 | 0.00 | 96 | 1014.0 |
| 20260903064137 | 77 | 265 | 0.0 | 0.0 | 0.00 | 0.15 | 0.00 | 96 | 1013.9 |
| 20260903063653 | 77 | 265 | 0.0 | 0.0 | 0.00 | 0.15 | 0.00 | 96 | 1013.8 |
| 20260903063229 | 77 | 265 | 0.0 | 0.0 | 0.00 | 0.15 | 0.00 | 96 | 1013.7 |
| 20260903062744 | 77 | 265 | 0.0 | 0.0 | 0.00 | 0.15 | 0.00 | 96 | 1013.8 |
| 20260903062641 | 77 | 265 | 0.0 | 0.0 | 0.00 | 0.15 | 0.00 | 96 | 1013.8 |
| 20260903062217 | 77 | 265 | 0.0 | 0.0 | 0.00 | 0.15 | 0.00 | 96 | 1013.8 |
| 20260903061652 | 77 | 265 | 0.0 | 0.0 | 0.00 | 0.15 | 0.00 | 96 | 1013.7 |
| 20260903061207 | 77 | 265 | 0.0 | 0.0 | 0.00 | 0.15 | 0.00 | 96 | 1013.7 |
| 20260903060644 | 77 | 265 | 0.0 | 0.0 | 0.00 | 0.15 | 0.00 | 96 | 1013.8 |
| 20260903060142 | 77 | 265 | 0.0 | 0.0 | 0.00 | 0.59 | 0.00 | 96 | 1013.9 |
| 20260903055650 | 77 | 265 | 0.0 | 0.0 | 0.00 | 0.59 | 0.00 | 96 | 1014.1 |
| 20260903055146 | 77 | 265 | 0.0 | 0.0 | 0.00 | 0.59 | 0.00 | 96 | 1014.3 |
| 20260903054644 | 77 | 265 | 0.0 | 0.0 | 0.00 | 0.59 | 0.00 | 96 | 1014.4 |
| 20260903054142 | 77 | 265 | 0.0 | 0.0 | 0.00 | 0.59 | 0.00 | 96 | 1014.3 |
| 20260903053700 | 77 | 265 | 0.0 | 0.0 | 0.00 | 0.59 | 0.00 | 96 | 1014.5 |
| 20260903053157 | 77 | 265 | 0.0 | 0.0 | 0.00 | 0.59 | 0.00 | 96 | 1014.6 |
| 20260903052734 | 76 | 265 | 0.0 | 0.0 | 0.00 | 0.59 | 0.00 | 96 | 1014.7 |
| 20260903052147 | 76 | 265 | 0.0 | 0.0 | 0.00 | 0.59 | 0.00 | 96 | 1014.7 |
| 20260903051743 | 76 | 265 | 0.0 | 0.0 | 0.00 | 0.59 | 0.00 | 95 | 1014.9 |
| 20260903051640 | 76 | 265 | 0.0 | 0.0 | 0.00 | 0.59 | 0.00 | 95 | 1014.9 |
| 20260903051156 | 76 | 265 | 0.0 | 0.0 | 0.00 | 0.59 | 0.00 | 95 | 1015.0 |
| 20260903050632 | 76 | 265 | 0.0 | 0.0 | 0.00 | 0.59 | 0.00 | 95 | 1015.2 |
| 20260903050225 | 76 | 265 | 0.0 | 0.0 | 0.01 | 0.59 | 0.00 | 95 | 1015.1 |
| 20260903050142 | 76 | 265 | 0.0 | 0.0 | 0.01 | 0.59 | 0.00 | 95 | 1015.1 |
| 20260903045633 | 77 | 265 | 0.0 | 0.0 | 0.01 | 0.59 | 0.00 | 95 | 1015.1 |
| 20260903045130 | 76 | 265 | 0.0 | 0.0 | 0.01 | 0.59 | 0.00 | 95 | 1015.1 |
| 20260903044648 | 76 | 265 | 0.0 | 0.0 | 0.01 | 0.59 | 0.00 | 95 | 1015.4 |
| 20260903044225 | 76 | 265 | 0.0 | 0.0 | 0.02 | 0.59 | 0.00 | 95 | 1015.4 |
| 20260903043716 | 76 | 265 | 0.0 | 0.0 | 0.03 | 0.59 | 0.00 | 95 | 1015.5 |
| 20260903043129 | 76 | 265 | 0.0 | 0.0 | 0.04 | 0.59 | 0.00 | 95 | 1015.7 |
| 20260903042630 | 76 | 265 | 0.0 | 4.0 | 0.04 | 0.59 | 0.00 | 95 | 1015.6 |
| 20260903042225 | 76 | 265 | 1.0 | 4.0 | 0.05 | 0.59 | 0.00 | 95 | 1015.8 |
| 20260903041700 | 76 | 265 | 2.0 | 4.0 | 0.07 | 0.59 | 0.00 | 95 | 1015.8 |
| 20260903041156 | 76 | 261 | 1.0 | 5.0 | 0.08 | 0.59 | 0.00 | 95 | 1015.8 |
| 20260903040712 | 76 | 257 | 2.0 | 5.0 | 0.09 | 0.59 | 0.00 | 94 | 1015.8 |
| 20260903040207 | 76 | 262 | 2.0 | 8.0 | 0.08 | 0.58 | 0.58 | 94 | 1015.7 |
| 20260903035655 | 76 | 246 | 3.0 | 8.0 | 0.08 | 0.58 | 0.58 | 94 | 1015.9 |
| 20260903035152 | 76 | 247 | 3.0 | 10.0 | 0.08 | 0.58 | 0.58 | 94 | 1015.8 |
| 20260903034649 | 76 | 270 | 3.0 | 10.0 | 0.08 | 0.58 | 0.58 | 93 | 1016.1 |
| 20260903034146 | 77 | 252 | 1.0 | 10.0 | 0.07 | 0.57 | 0.57 | 93 | 1016.2 |
| 20260903033706 | 77 | 262 | 5.0 | 10.0 | 0.06 | 0.56 | 0.56 | 93 | 1016.3 |
| 20260903033201 | 77 | 255 | 4.0 | 13.0 | 0.05 | 0.55 | 0.55 | 93 | 1016.1 |
| 20260903032657 | 78 | 260 | 4.0 | 12.0 | 0.05 | 0.55 | 0.55 | 92 | 1016.1 |
| 20260903032234 | 78 | 257 | 6.0 | 12.0 | 0.03 | 0.53 | 0.53 | 92 | 1016.1 |
| 20260903032152 | 78 | 257 | 6.0 | 12.0 | 0.03 | 0.53 | 0.53 | 92 | 1016.1 |
| 20260903031648 | 79 | 250 | 8.0 | 15.0 | 0.02 | 0.52 | 0.52 | 91 | 1016.2 |
| 20260903031146 | 79 | 269 | 8.0 | 15.0 | 0.01 | 0.51 | 0.51 | 90 | 1016.1 |
| 20260903030643 | 79 | 212 | 4.0 | 12.0 | 0.00 | 0.50 | 0.50 | 88 | 1016.2 |
| 20260903030141 | 80 | 277 | 5.0 | 10.0 | 0.00 | 0.50 | 0.50 | 87 | 1016.1 |
| 20260903025730 | 80 | 248 | 3.0 | 8.0 | 0.00 | 0.50 | 0.50 | 87 | 1015.9 |
| 20260903025648 | 80 | 248 | 3.0 | 8.0 | 0.00 | 0.50 | 0.50 | 87 | 1015.9 |
| 20260903025146 | 80 | 245 | 2.0 | 5.0 | 0.00 | 0.50 | 0.50 | 87 | 1015.9 |
| 20260903024643 | 80 | 246 | 2.0 | 9.0 | 0.00 | 0.50 | 0.50 | 86 | 1015.9 |
| 20260903024141 | 81 | 263 | 2.0 | 10.0 | 0.00 | 0.50 | 0.50 | 86 | 1015.9 |
| 20260903023639 | 81 | 198 | 4.0 | 9.0 | 0.00 | 0.50 | 0.50 | 86 | 1015.7 |
| 20260903023138 | 82 | 261 | 5.0 | 9.0 | 0.00 | 0.50 | 0.50 | 86 | 1015.6 |
| 20260903022715 | 82 | 230 | 5.0 | 10.0 | 0.00 | 0.50 | 0.50 | 85 | 1015.5 |
| 20260903022130 | 83 | 238 | 5.0 | 8.0 | 0.00 | 0.50 | 0.50 | 83 | 1015.4 |
| 20260903021708 | 85 | 229 | 4.0 | 7.0 | 0.00 | 0.50 | 0.50 | 82 | 1015.2 |
| 20260903021143 | 85 | 155 | 3.0 | 6.0 | 0.00 | 0.50 | 0.50 | 85 | 1015.3 |
| 20260903020658 | 85 | 105 | 1.0 | 9.0 | 0.00 | 0.50 | 0.50 | 85 | 1015.2 |
| 20260903020135 | 85 | 105 | 2.0 | 7.0 | 0.00 | 0.50 | 0.50 | 85 | 1015.1 |
| 20260903015642 | 85 | 105 | 3.0 | 6.0 | 0.00 | 0.50 | 0.50 | 86 | 1015.2 |
| 20260903015239 | 85 | 105 | 2.0 | 6.0 | 0.00 | 0.50 | 0.50 | 86 | 1014.9 |
| 20260903014631 | 85 | 105 | 3.0 | 4.0 | 0.00 | 0.50 | 0.50 | 85 | 1014.7 |
| 20260903014129 | 85 | 105 | 2.0 | 8.0 | 0.00 | 0.50 | 0.50 | 86 | 1014.7 |
| 20260903013647 | 85 | 91 | 4.0 | 8.0 | 0.00 | 0.50 | 0.50 | 85 | 1014.7 |
| 20260903013144 | 85 | 94 | 4.0 | 7.0 | 0.00 | 0.50 | 0.50 | 85 | 1014.7 |
| 20260903012722 | 85 | 107 | 3.0 | 8.0 | 0.00 | 0.50 | 0.50 | 86 | 1014.7 |
| 20260903012158 | 85 | 109 | 4.0 | 8.0 | 0.00 | 0.50 | 0.50 | 86 | 1014.7 |
| 20260903011635 | 85 | 107 | 4.0 | 8.0 | 0.00 | 0.50 | 0.50 | 86 | 1014.7 |
| 20260903011154 | 85 | 86 | 4.0 | 8.0 | 0.00 | 0.50 | 0.50 | 85 | 1014.6 |
| 20260903010635 | 85 | 119 | 2.0 | 9.0 | 0.00 | 0.50 | 0.50 | 86 | 1014.8 |
| 20260903010133 | 85 | 119 | 4.0 | 9.0 | 0.00 | 0.50 | 0.50 | 86 | 1014.8 |
| 20260903005641 | 85 | 116 | 3.0 | 7.0 | 0.00 | 0.50 | 0.50 | 86 | 1014.7 |
| 20260903005140 | 85 | 116 | 2.0 | 8.0 | 0.00 | 0.50 | 0.50 | 85 | 1014.6 |
| 20260903004718 | 85 | 116 | 5.0 | 8.0 | 0.00 | 0.50 | 0.50 | 85 | 1014.6 |
| 20260903004152 | 85 | 107 | 2.0 | 9.0 | 0.00 | 0.50 | 0.50 | 85 | 1014.6 |
| 20260903003703 | 85 | 107 | 5.0 | 9.0 | 0.00 | 0.50 | 0.50 | 85 | 1014.4 |
| 20260903003159 | 85 | 107 | 3.0 | 9.0 | 0.00 | 0.50 | 0.50 | 85 | 1014.3 |
| 20260903002636 | 85 | 107 | 4.0 | 9.0 | 0.00 | 0.50 | 0.50 | 85 | 1014.3 |
| 20260903002137 | 85 | 107 | 3.0 | 8.0 | 0.00 | 0.50 | 0.50 | 85 | 1014.3 |
| 20260903001633 | 85 | 107 | 4.0 | 8.0 | 0.00 | 0.50 | 0.50 | 85 | 1014.1 |
| 20260903001131 | 85 | 116 | 3.0 | 7.0 | 0.00 | 0.50 | 0.50 | 84 | 1014.1 |